Weather History for Blue Canyon, CA

Change the Weather History Date:

Tuesday, May 1, 2012

  Actual Average Record
Temperature  
Mean Temperature 52 °F -  
Max Temperature 59 °F 57 °F 74 °F (1985)
Min Temperature 46 °F 40 °F 23 °F (1964)
Degree Days  
Heating Degree Days 14    
Growing Degree Days 2 (Base 50)    
Moisture  
Dew Point 40 °F    
Average Humidity 67    
Maximum Humidity 87    
Minimum Humidity 44    
Precipitation  
Precipitation 0.00 in - - ()
Sea Level Pressure  
Sea Level Pressure 29.83 in    
Wind  
Wind Speed 6 mph (SSE)    
Max Wind Speed 13 mph    
Max Gust Speed 20 mph    
Visibility 10 miles    
Events      
Averages and records for this station are not official NWS values.
T = Trace of Precipitation, MM = Missing Value Source: NWS Daily Summary

Daily Weather History Graph

Daily Weather History Graph

Search for Another Location

Airport:

Trip Planner

Search our weather history database for the weather conditions in past years. The results will help you decide how hot, cold, wet, or windy it might be!

Date:

Astronomy

May. 01, 2012 Rise Set
Actual Time 6:03 AM PDT 7:56 PM PDT
Civil Twilight 5:34 AM PDT 8:25 PM PDT
Nautical Twilight 4:59 AM PDT 9:01 PM PDT
Astronomical Twilight 4:21 AM PDT 9:39 PM PDT
Moon 3:07 PM PDT (5/1) 3:01 AM PDT (5/1)
Length of Visible Light 14h 51m
Length of Day
13h 53m
Waxing Gibbous, 75% of the Moon is Illuminated
May 1
Waxing Gibbous
May 5
Full
May 12
Last Quarter
May 20
New
May 28
First Quarter

Hourly Weather History & Observations

Time (PDT) Temp. Windchill Dew Point Humidity Pressure Visibility Wind Dir Wind Speed Gust Speed Precip Events Conditions
12:12 AM 51.8 °F - 46.4 °F 82% 29.99 in 10.0 mi SSE 5.8 mph - N/A   Scattered Clouds
12:52 AM 50.0 °F - 46.0 °F 86% 29.81 in 10.0 mi SSE 5.8 mph - N/A   Partly Cloudy
1:52 AM 48.9 °F - 45.0 °F 86% 29.81 in 10.0 mi SE 5.8 mph - N/A   Mostly Cloudy
2:52 AM 48.9 °F - 45.0 °F 86% 29.80 in 10.0 mi SE 6.9 mph - N/A   Scattered Clouds
3:52 AM 48.0 °F - 44.1 °F 86% 29.81 in 10.0 mi SE 4.6 mph - N/A   Mostly Cloudy
4:11 AM 48.2 °F - 44.6 °F 87% 29.96 in 10.0 mi SE 4.6 mph - N/A   Mostly Cloudy
4:18 AM 48.2 °F - 44.6 °F 87% 29.96 in 10.0 mi SE 3.5 mph - N/A   Scattered Clouds
4:52 AM 48.0 °F - 43.0 °F 83% 29.79 in 10.0 mi ESE 3.5 mph - N/A   Clear
5:52 AM 46.9 °F - 41.0 °F 80% 29.81 in 10.0 mi ESE 3.5 mph - N/A   Clear
6:52 AM 48.0 °F - 37.9 °F 68% 29.80 in 10.0 mi Calm Calm - N/A   Clear
7:52 AM 51.1 °F - 37.0 °F 59% 29.80 in 10.0 mi Calm Calm - N/A   Clear
8:52 AM 53.1 °F - 32.0 °F 45% 29.81 in 10.0 mi South 8.1 mph - N/A   Clear
9:52 AM 54.0 °F - 36.0 °F 51% 29.81 in 10.0 mi South 9.2 mph - N/A   Clear
10:52 AM 55.0 °F - 37.0 °F 51% 29.81 in 10.0 mi SSW 8.1 mph - N/A   Clear
11:52 AM 57.0 °F - 41.0 °F 55% 29.81 in 10.0 mi SSW 9.2 mph - N/A   Mostly Cloudy
12:52 PM 57.0 °F - 37.9 °F 49% 29.80 in 10.0 mi South 12.7 mph 18.4 mph N/A   Scattered Clouds
1:52 PM 57.0 °F - 37.9 °F 49% 29.81 in 10.0 mi SW 9.2 mph 19.6 mph N/A   Scattered Clouds
2:52 PM 57.9 °F - 37.0 °F 46% 29.80 in 10.0 mi SSW 10.4 mph 18.4 mph N/A   Scattered Clouds
3:52 PM 57.0 °F - 35.1 °F 44% 29.81 in 10.0 mi SSW 12.7 mph 18.4 mph N/A   Clear
4:52 PM 55.9 °F - 35.1 °F 45% 29.81 in 10.0 mi SW 10.4 mph 17.3 mph N/A   Clear
5:52 PM 54.0 °F - 37.0 °F 53% 29.82 in 10.0 mi Variable 6.9 mph - N/A   Clear
6:52 PM 52.0 °F - 41.0 °F 66% 29.82 in 10.0 mi South 5.8 mph - N/A   Partly Cloudy
7:52 PM 50.0 °F - 39.9 °F 68% 29.82 in 10.0 mi Calm Calm - N/A   Clear
8:52 PM 46.9 °F - 42.1 °F 83% 29.84 in 10.0 mi Calm Calm - N/A   Clear
9:52 PM 46.0 °F 44.8 °F 39.9 °F 79% 29.84 in 10.0 mi NE 3.5 mph - N/A   Clear
10:52 PM 46.9 °F - 37.9 °F 71% 29.82 in 10.0 mi East 3.5 mph - N/A   Clear
11:52 PM 46.9 °F - 33.1 °F 59% 29.81 in 10.0 mi Calm Calm - N/A   Clear